Regional Weather Roundup
Issued by NWS Charleston, SC

Current Version | Previous Version | Text Only | Print | Product List | Glossary Off
Versions: 1 2 3 4 5 6 7 8 9 10 11 12 13 14 15 16 17 18 19 20 21 22 23 24 25 26 27 28 29 30 31 32 33 34 35 36 37 38 39 40 41 42 43 44 45 46 47 48 49 50

649
ASUS42 KCHS 250845
RWRCHS

REGIONAL WEATHER ROUNDUP
NATIONAL WEATHER SERVICE CHARLESTON SC
400 AM EDT MON SEP 25 2017

NOTE: "FAIR" INDICATES FEW OR NO CLOUDS BELOW 12,000 FEET WITH NO
SIGNIFICANT WEATHER AND/OR OBSTRUCTIONS TO VISIBILITY.

NOT ALL STATIONS ARE QUALITY CONTROLLED. USE DATA WITH CAUTION...
ESPECIALLY DEWPOINT OBSERVATIONS.

SCZ027-030-031-034>040-042>050-250900-
...SOUTHEAST SOUTH CAROLINA...

CITY           SKY/WX    TMP DP  RH WIND       PRES   REMARKS
N CHARLESTON   MOCLDY    70  67  90 N8        29.90S
WATERFRONT PRK   N/A     75  70  84 N7        29.73S
JOHNS ISLAND   FAIR      73  68  83 NW5       29.90R
PINOPOLIS        N/A     75  70  83 NE14      29.83F
MONCKS CORNER  FAIR      72  64  78 N5        29.91S
SUMMERVILLE    FAIR      68  64  88 CALM      29.92S
BEAUFORT MCAS  MOCLDY    74  71  91 N6        29.90F
BEAUFORT ARPT  FAIR      73  68  83 N8        29.90R
HILTON HEAD IS CLOUDY    77  72  83 N10       29.90S
WALTERBORO     MOSUNNY   68  66  94 N5        29.92F
ALLENDALE      NOT AVBL

...SOUTHERN MIDLANDS AND PEE DEE...

CITY           SKY/WX    TMP DP  RH WIND       PRES   REMARKS
GEORGETOWN     FAIR      70  66  88 N5        29.90S
KINGSTREE      FAIR      68  63  83 N3        29.92S
ORANGEBURG     MOCLDY    72  65  78 N6        29.94S
BARNWELL       FAIR      70  68  94 CALM      29.95R
AIKEN          FAIR      66  64  94 CALM      30.00S
MANNING        FAIR      70  66  88 MISG      29.93R
COLUMBIA       PTCLDY    73  65  75 N3        29.95S
SUMTER         CLOUDY    70  62  77 NE8       29.92S
FLORENCE       CLOUDY    69  64  84 N8        29.94S
MYRTLE BEACH   PTCLDY    71  65  81 NE13      29.90S
N MYRTLE BEACH PTCLDY    71  65  81 NE12      29.89S

$$

GAZ063-065-086>088-099>101-113>116-118-119-134>141-150-250900-
...SOUTHEAST GEORGIA...

CITY           SKY/WX    TMP DP  RH WIND       PRES   REMARKS
SAVANNAH ARPT  PTCLDY    71  69  93 N7        29.91F
HUNTER AAF     PTCLDY    73  69  87 CALM      29.88F
FORT STEWART   CLOUDY    72  67  85 CALM      29.89S
STATESBORO     MOCLDY    71  66  83 CALM      29.94R
SYLVANIA       CLOUDY    70  69  97 CALM      29.94S
CLAXTON        FAIR      70  69  97 CALM      29.94R

...CSRA...CENTRAL AND FAR SOUTHEAST GEORGIA...

CITY           SKY/WX    TMP DP  RH WIND       PRES   REMARKS
THOMSON        CLOUDY    66  65  96 CALM      30.03R
AUGUSTA-BUSH   PTCLDY    72  68  87 CALM      29.95S
AUGUSTA-DANIEL CLOUDY    72  66  81 N8        29.97S
SWAINSBORO     FAIR      70  70 100 CALM      29.96S
VIDALIA        PTCLDY    70  68  94 N5        29.95S
EASTMAN        FAIR      67  67 100 CALM      29.98S
HAZLEHURST     FAIR      70  66  87 N3        29.93S
ALMA           CLEAR     69  67  93 N3        29.92F
WAYCROSS       CLEAR     69  67  90 CALM      29.93R
JESUP          NOT AVBL
BAXLEY         FAIR      66  66 100 NE3       29.93S
BRUNSWICK      PTCLDY    72  68  88 N5        29.91S
SAINT SIMONS   PTCLDY    75  73  93 N6        29.89F

$$

SCZ027-028-034-036>038-045-046-048>050-GAZ119-141-250900-
...LAKE AND SUPPLEMENTAL COASTAL OBSERVATIONS...

STATION/POSITION TIME  TEMP    WIND        PRES    WAVE   SWELL
                       AIR SEA DIR/SP/G            HT/PER HT/PER/DIR
                 (UTC) (F)     (DEG/KT/KT) (MB)    (FT/S) (FT/S/D)
WINYAH BAY       0745   72      10/  6     1012.0S
LAKE MURRAY      0820   71      10/  2/  4 1014.2R
ACE BASIN NERRS  0745   73     360/  2     1012.0S
FORT PULASKI     0800   74 81  350/  7/  9 1012.6
SAPELO ISLAND    0800   74        CALM     1012.0

$$

ANZ835-935-AMZ111-154-330-350-352-354-370-450-454-472-250900-
...C-MAN AND BUOY OBSERVATIONS...

STATION/POSITION TIME  TEMP    WIND        PRES    WAVE   SWELL
                       AIR SEA DIR/SP/G            HT/PER HT/PER/DIR
                 (UTC) (F)     (DEG/KT/KT) (MB)    (FT/S) (FT/S/D)
BUOY 41004       0810   78 81   30/ 17/ 21 1010.5
BUOY 41008       0750   80 80   20/ 14/ 16 1011.5F   5/15   3/ 90/15
FOLLY BEACH CMAN 0800   76      10/ 11/ 13 1012.8R
CAPERS NEARSHORE 0708   75 80   20/ 14/ 17 1011.4S
FRIPP NEARSHORE  0708   78      30/ 12/ 16 1017.7F


STATION/POSITION TIME  TEMP    WIND        PRES    WAVE   SWELL
                       AIR SEA DIR/SP/G            HT/PER HT/PER/DIR
                 (UTC) (F)     (DEG/KT/KT) (MB)    (FT/S) (FT/S/D)
5E ST. MARYS GA  0800      81                N/A     6/11   3/110/11
FRYING PAN BUOY  0810   78 82   40/ 21/ 27 1010.2
BUOY 41025       0750   75 79   30/ 21/ 25 1011.1   11/14  10/160/14
CAPE LOOKOUT NC  0800   74      30/ 20/ 25 1011.5F
BUOY 41002       0750   81 80   20/ 35/ 43  997.3F  21/13  10/130/13
BUOY 41010       0810           20/ 16/ 17 1009.3
ST AUGUSTINE FL  0800   80 82   20/ 17/ 18 1011.6F


$$




USA.gov is the U.S. government's official web portal to all federal, state and local government web resources and services.